This demonstration page uses our WeatherBlox Daily Observations layout. Learn more.

Left ArrowRight Arrow

Hourly Observations for March 21, 2020

Temp ( °F °C ) Dew Point ( °F °C ) Humidity (%) Winds ( mph kmh ) Pressure ( in mb ) Visibility ( mi km ) Precip ( " mm )
12:53 am 00:53 Clear 12 -11.1 9 -12.8 87 87 N N/A 30.19 1022 10 16 N/A
1:53 am 01:53 Clear 13 -10.6 10 -12.2 88 88 N N/A 30.18 1022 10 16 N/A
2:53 am 02:53 Clear 12 -11.1 9 -12.8 87 87 SSW 3 6 30.17 1022 10 16 N/A
3:53 am 03:53 Clear 12 -11.1 8 -13.3 84 84 E 6 9 30.16 1021 10 16 N/A
4:53 am 04:53 Clear 12 -11.1 9 -12.8 87 87 E 8 13 30.15 1021 10 16 N/A
5:53 am 05:53 Clear 12 -11.1 9 -12.8 87 87 ENE 6 9 30.15 1021 10 16 N/A
6:53 am 06:53 Clear 12 -11.1 8 -13.3 84 84 N N/A 30.15 1021 10 16 N/A
7:53 am 07:53 Sunny 11 -11.7 8 -13.3 88 88 NW 6 9 30.17 1022 9 14 N/A
8:53 am 08:53 Sunny 14 -10 12 -11.1 92 92 N N/A 30.19 1023 10 16 N/A
9:53 am 09:53 Sunny 18 -7.8 15 -9.4 88 88 N N/A 30.21 1023 10 16 N/A
10:53 am 10:53 Sunny 20 -6.7 16 -8.9 85 85 SSE 3 6 30.20 1023 10 16 N/A
11:53 am 11:53 Sunny 24 -4.4 20 -6.7 84 84 N N/A 30.19 1022 10 16 N/A
12:53 pm 12:53 Sunny 30 -1.1 22 -5.6 72 72 N N/A 30.17 1022 10 16 N/A
1:53 pm 13:53 Sunny 29 -1.7 23 -5 78 78 N N/A 30.16 1021 10 16 N/A
2:53 pm 14:53 Sunny 32 undefined 25 -3.9 75 75 N N/A 30.14 1021 10 16 N/A
3:53 pm 15:53 Sunny 35 1.7 25 -3.9 67 67 N N/A 30.13 1020 10 16 N/A
4:53 pm 16:53 Sunny 37 2.8 26 -3.3 65 65 VRB 5 7 30.12 1020 10 16 N/A
5:53 pm 17:53 Sunny 36 2.2 25 -3.9 64 64 NE 6 9 30.12 1020 10 16 N/A
6:53 pm 18:53 Sunny 33 0.6 25 -3.9 72 72 E 6 9 30.13 1020 10 16 N/A
7:53 pm 19:53 Clear 28 -2.2 23 -5 81 81 SSE 6 9 30.15 1021 10 16 N/A
8:53 pm 20:53 Mostly Cloudy 27 -2.8 22 -5.6 81 81 NE 3 6 30.13 1020 10 16 N/A
9:53 pm 21:53 Mostly Cloudy 27 -2.8 23 -5 85 85 NNW 3 6 30.15 1021 10 16 N/A
10:53 pm 22:53 Mostly Cloudy 27 -2.8 22 -5.6 81 81 ESE 3 6 30.17 1022 10 16 N/A
11:53 pm 23:53 Cloudy 26 -3.3 22 -5.6 84 84 N N/A 30.18 1022 10 16 N/A

Powered by AerisWeather